[[{"header":{"parameterUnit":"m.s-1","parameterCategory":1,"la1":30.2991,"la2":30.254,"lo1":-89.0895,"lo2":-89.0444,"dy":0.0017,"dx":0.0017,"nx":28,"ny":28,"refTime":"2024-07-07T21:00:00:Z","depth":0,"parameterNumber":2,"parameterNumberName":"U-component_of_WINDS"},"data":[0,0,0,0,0,0,0,0,0,0,0,0,0,0,0,0,0,0,0,0,0,0,0,0,0,0,0,0,0,0,0,0,0,0,0,0,0,0,0,0,0,0,0,0,0,0,0,0,0,0,0,0,0,0,0,0,0,0,3.9855,3.9856,0,3.9963,3.9964,3.9965,3.9958,3.9957,3.9955,3.9954,4.0065,4.0069,4.0073,0,0,0,0,0,0,0,0,0,0,0,0,0,3.9642,3.9646,3.9855,3.9856,3.9857,3.9963,3.9964,3.9966,3.9959,3.9957,3.9955,3.9953,4.0063,4.0069,4.0074,0,0,0,0,0,0,0,0,0,0,0,0,0,3.974,3.9647,3.9854,3.9867,3.9869,3.9962,3.9964,3.9966,3.9959,3.9957,3.9954,3.9952,4.0062,4.0068,4.0075,4.0163,0,0,4.0095,4.0098,0,0,0,0,0,0,0,0,3.9735,3.9748,3.9863,3.9866,3.9868,3.9945,3.993,4.0032,3.996,3.9925,3.9954,3.9951,4.0027,4.0036,4.0062,4.0169,4.0173,4.0096,4.01,4.0102,4.0104,0,0,0,0,0,0,0,3.9728,3.9744,3.9898,3.9865,3.9868,3.9866,3.9878,3.9949,3.9988,3.9928,3.9927,3.994,4.0028,4.0055,4.0064,4.0175,4.0095,4.0101,4.0105,4.0108,4.0359,4.0361,0,0,0,0,0,0,3.9718,3.9738,3.9894,3.9901,3.9794,3.9872,3.9885,3.9923,3.9987,3.9995,3.9942,3.9939,4.0045,4.0056,4.0068,4.0175,4.0102,4.0109,4.0112,4.0356,4.0359,4.0362,0,0,0,0,0,0,3.9714,3.9732,3.989,3.9819,3.9839,3.9878,3.9921,3.9926,3.9954,3.9998,4.0005,3.9963,4.0044,4.0059,4.0139,4.0179,4.0112,4.0118,4.0353,4.0357,4.0361,4.039,0,0,0,0,0,0,3.9708,3.9731,3.9765,3.982,3.9843,3.9959,3.9923,3.993,3.9965,3.9963,4.002,4.0027,4.0043,4.0129,4.0146,4.0187,4.0123,4.035,4.0355,4.036,4.0386,4.0394,4.0402,0,0,0,0,0,3.97,3.9769,3.9767,3.9786,3.9887,3.9962,3.9975,3.9992,3.9968,4.0003,4.0031,4.0025,4.0172,4.0138,4.0156,4.02,4.0347,4.0353,4.0359,4.0382,4.0393,4.0402,0,0,0,0,0,0,3.9718,3.9777,3.9775,3.9864,3.9908,3.996,4.0004,4.0003,4.0054,4.005,4.0069,4.0082,4.0163,4.019,4.015,4.0288,4.0256,4.0266,4.0267,4.0278,4.0286,4.0277,4.0128,0,0,0,0,0,3.9732,3.9789,3.9837,3.9911,3.9933,3.9965,3.9998,4.0008,4.0054,4.0072,4.0107,4.0152,4.0208,4.0245,4.0299,4.039,4.0402,4.0429,4.0437,4.0444,4.0451,4.05,4.0512,4.0382,4.0382,4.0382,0,0,3.9763,3.9802,3.9836,3.9915,3.9951,4.0008,3.9981,4.0043,4.0085,4.0082,4.016,4.0187,4.0238,4.0324,4.0363,4.0349,4.049,4.0451,4.0456,4.0461,4.0507,4.0519,4.053,4.0386,4.0385,4.0385,0,0,3.9846,3.9882,3.9947,3.9982,4.0036,4.0057,4.0072,4.0125,4.0143,4.0221,4.0219,4.027,4.0367,4.0404,4.0435,4.0532,4.0528,4.0549,4.0591,4.0638,4.0649,4.0658,4.0691,4.0703,4.0557,4.0558,4.0558,0,3.9877,3.9963,3.998,4.0042,4.0077,4.0077,4.0142,4.0176,4.0244,4.0268,4.0251,4.0371,4.0407,4.05,4.0523,4.0549,4.0567,4.0542,4.0646,4.0655,4.0664,4.0696,4.0708,4.056,4.0559,4.0559,4.0559,0,3.9997,4.0057,4.0103,4.0168,4.0208,4.0272,4.0298,4.0336,4.0342,4.0365,4.0444,4.0486,4.0548,4.0571,4.0578,4.0666,4.0655,4.0642,4.061,4.0678,4.0708,4.0721,4.0563,4.0562,4.0561,4.0561,0,0,4.0094,4.0168,4.0185,4.0214,4.0273,4.0319,4.0382,4.0443,4.0475,4.0522,4.0575,4.0657,4.0644,4.068,4.0691,4.0732,4.0804,4.0714,4.0716,4.0728,4.0901,4.0909,4.0923,4.0803,4.0805,4.0807,4.0896,0,4.0182,4.0294,4.0311,4.0409,4.0464,4.0465,4.052,4.0561,4.0584,4.0634,4.0659,4.0716,4.0697,4.0718,4.0759,4.0787,4.0839,4.0781,4.0851,4.0853,4.0836,4.0939,4.0948,4.1031,4.0908,4.0911,4.0912,0,4.03,4.035,4.0453,4.0503,4.0527,4.0576,4.0632,4.068,4.0727,4.0741,4.078,4.0786,4.0851,4.0817,4.0907,4.0867,4.0896,4.0915,4.0918,4.0924,4.0885,4.0946,4.1058,4.1069,4.0931,4.0929,4.0928,0,4.0358,4.0451,4.0525,4.055,4.0611,4.0645,4.0672,4.0717,4.0752,4.0802,4.0824,4.0881,4.0911,4.0955,4.0976,4.095,4.1063,4.1032,4.1075,4.1075,4.1098,4.1096,4.1214,4.112,4.112,4.112,4.1119,0,4.0454,4.0517,4.0552,4.0597,4.0667,4.0686,4.0755,4.0781,4.0821,4.087,4.0875,4.0922,4.0947,4.0997,4.1014,4.1085,4.1099,4.1111,4.1114,4.111,4.1108,4.1128,4.1122,4.1123,4.1122,4.1121,4.1121,0,4.053,4.0556,4.0636,4.0687,4.0701,4.0751,4.0794,4.0838,4.086,4.0923,4.0939,4.0974,4.1033,4.1059,4.1132,4.1143,4.1223,4.1224,4.1207,4.1208,4.1249,4.1244,4.1383,4.1402,4.1297,4.1298,4.1299,0,4.0589,4.0637,4.0693,4.0726,4.0754,4.0808,4.0844,4.0865,4.0901,4.0958,4.0995,4.1054,4.1102,4.1197,4.1229,4.1285,4.1285,4.133,4.1294,4.1287,4.1284,4.128,4.1284,4.1336,4.1337,4.1338,4.1339,0,4.0689,4.0699,4.075,4.0805,4.0847,4.0892,4.0936,4.0963,4.0991,4.1032,4.1092,4.1129,4.1204,4.1262,4.132,4.1347,4.1347,4.135,4.1363,4.1358,4.1345,4.1351,4.1223,4.1347,4.1346,4.1345,4.1345,4.1344,4.0757,4.0799,4.0845,4.0901,4.0936,4.0976,4.1019,4.1047,4.1098,4.1159,4.1169,4.1233,4.1278,4.1356,4.1386,4.1436,4.1425,4.1443,4.1448,4.1452,4.1453,4.1339,4.1447,4.1446,4.1446,4.1446,4.1446,0,4.0856,4.0885,4.0937,4.0997,4.1041,4.1038,4.1086,4.1123,4.1179,4.1221,4.1268,4.1337,4.1394,4.143,4.1487,4.152,4.1522,4.1535,4.1531,4.1537,4.1461,4.1443,4.1532,4.1532,4.1532,4.1532,4.1532,4.1532,4.0912,4.0983,4.0999,4.1086,4.1115,4.1178,4.1205,4.1242,4.1276,4.1353,4.1399,4.1423,4.1463,4.1522,4.1574,4.1583,4.1603,4.1616,4.1625,4.1552,4.1543,4.1534,4.1518,4.1621,4.1621,4.1697,4.1697,4.1698]},{"header":{"parameterUnit":"m.s-1","parameterCategory":1,"la1":30.2991,"la2":30.254,"lo1":-89.0895,"lo2":-89.0444,"dy":0.0017,"dx":0.0017,"nx":28,"ny":28,"refTime":"2024-07-07T21:00:00:Z","depth":0,"parameterNumber":3,"parameterNumberName":"V-component_of_WINDS"},"data":[0,0,0,0,0,0,0,0,0,0,0,0,0,0,0,0,0,0,0,0,0,0,0,0,0,0,0,0,0,0,0,0,0,0,0,0,0,0,0,0,0,0,0,0,0,0,0,0,0,0,0,0,0,0,0,0,0,0,6.2211,6.2211,0,6.2243,6.2244,6.2244,6.2193,6.2191,6.2189,6.2187,6.2216,6.2218,6.222,0,0,0,0,0,0,0,0,0,0,0,0,0,6.2099,6.2101,6.2211,6.2211,6.2212,6.2243,6.2244,6.2244,6.2193,6.2191,6.2189,6.2187,6.2215,6.2218,6.2221,0,0,0,0,0,0,0,0,0,0,0,0,0,6.2141,6.2102,6.2211,6.219,6.2188,6.2243,6.2244,6.2244,6.2193,6.2191,6.2188,6.2186,6.2214,6.2217,6.2221,6.2296,0,0,6.2232,6.2234,0,0,0,0,0,0,0,0,6.2139,6.2145,6.2192,6.2191,6.219,6.2211,6.2215,6.2262,6.2194,6.2191,6.2187,6.2184,6.2216,6.2219,6.2231,6.2298,6.2299,6.2232,6.2235,6.2236,6.2237,0,0,0,0,0,0,0,6.2136,6.2143,6.2223,6.2193,6.2192,6.2177,6.218,6.2223,6.2218,6.2191,6.2188,6.2192,6.2215,6.2228,6.2231,6.2299,6.2232,6.2235,6.2238,6.2239,6.2429,6.2431,0,0,0,0,0,0,6.2136,6.2141,6.2222,6.2224,6.2157,6.2181,6.2185,6.2207,6.2217,6.2216,6.2195,6.219,6.2223,6.2227,6.2232,6.2321,6.2236,6.2239,6.2241,6.2426,6.2429,6.2432,0,0,0,0,0,0,6.2134,6.2144,6.2221,6.2182,6.2191,6.2186,6.2211,6.2209,6.2222,6.222,6.2218,6.2209,6.2221,6.2227,6.2281,6.2321,6.2241,6.2244,6.2422,6.2427,6.2431,6.2498,0,0,0,0,0,0,6.2131,6.2143,6.2173,6.2183,6.2193,6.2271,6.2214,6.2212,6.2229,6.2223,6.2233,6.2232,6.2219,6.2276,6.2285,6.2324,6.2247,6.2419,6.2424,6.2429,6.2492,6.2504,6.2515,0,0,0,0,0,6.2127,6.2189,6.2175,6.2185,6.223,6.2273,6.2279,6.2264,6.2232,6.2261,6.226,6.2232,6.2315,6.2282,6.2291,6.2333,6.2416,6.2423,6.2429,6.2487,6.2502,6.2514,0,0,0,0,0,0,6.2182,6.219,6.2174,6.2242,6.2258,6.2265,6.2301,6.228,6.2303,6.2297,6.2276,6.2279,6.2337,6.234,6.2302,6.2406,6.236,6.2369,6.2401,6.2415,6.2426,6.2424,6.225,0,0,0,0,0,6.2202,6.2238,6.2243,6.2302,6.2311,6.2305,6.2323,6.2311,6.2325,6.2331,6.2334,6.2348,6.2377,6.2396,6.2423,6.2493,6.2494,6.2526,6.2537,6.2546,6.2554,6.2591,6.2605,6.2454,6.2454,6.2453,0,0,6.2244,6.2253,6.2276,6.2314,6.2324,6.2361,6.2311,6.2351,6.2377,6.2336,6.2388,6.2391,6.2405,6.2467,6.2494,6.2471,6.2596,6.2555,6.2562,6.2564,6.2599,6.2613,6.2626,6.2458,6.2457,6.2457,0,0,6.2338,6.2349,6.24,6.2412,6.243,6.2425,6.2438,6.2448,6.2449,6.2501,6.2471,6.2501,6.2552,6.2564,6.2576,6.2676,6.2651,6.2685,6.2743,6.2779,6.2791,6.2801,6.2836,6.2849,6.2693,6.2693,6.2693,0,6.2387,6.2442,6.2428,6.2471,6.2488,6.2455,6.2505,6.2517,6.2542,6.2554,6.2528,6.2592,6.2599,6.2664,6.2688,6.27,6.2712,6.2683,6.2791,6.2801,6.281,6.2843,6.2857,6.2697,6.2697,6.2696,6.2696,0,6.2501,6.254,6.2578,6.2606,6.2627,6.2673,6.2665,6.2688,6.2674,6.2672,6.2724,6.2732,6.276,6.2775,6.276,6.2837,6.2822,6.2794,6.2748,6.2829,6.286,6.2872,6.2703,6.2701,6.27,6.2699,0,0,6.2629,6.2649,6.2663,6.2676,6.2693,6.2722,6.2767,6.2796,6.2816,6.2834,6.287,6.2915,6.2889,6.2903,6.289,6.2923,6.3001,6.289,6.289,6.291,6.3085,6.3105,6.312,6.2985,6.2987,6.2989,6.3083,0,6.2722,6.2802,6.2791,6.2866,6.2901,6.2871,6.291,6.2924,6.2924,6.2952,6.2951,6.2983,6.2947,6.2955,6.2986,6.2985,6.3035,6.2978,6.3016,6.3018,6.3013,6.3136,6.3158,6.3246,6.3095,6.3097,6.3099,0,6.2842,6.2867,6.2947,6.296,6.2974,6.3009,6.3035,6.3064,6.3079,6.3076,6.3093,6.3074,6.3118,6.3072,6.313,6.3092,6.3107,6.3109,6.3112,6.3114,6.3062,6.3141,6.3274,6.3287,6.3118,6.3116,6.3115,0,6.2926,6.298,6.3035,6.3046,6.3062,6.3088,6.3096,6.3109,6.3127,6.3149,6.3161,6.3188,6.3202,6.3222,6.3211,6.3179,6.3271,6.3224,6.3269,6.3269,6.3288,6.3287,6.3426,6.33,6.33,6.33,6.33,0,6.3031,6.3081,6.3073,6.3106,6.3161,6.3148,6.3201,6.3205,6.3217,6.325,6.3225,6.3256,6.324,6.3269,6.326,6.331,6.3316,6.3314,6.3311,6.3316,6.3316,6.3324,6.3318,6.3303,6.3303,6.3302,6.3301,0,6.3134,6.3131,6.3189,6.3201,6.3205,6.3244,6.3253,6.3284,6.3282,6.3324,6.3333,6.333,6.3363,6.3354,6.3389,6.3384,6.3446,6.3436,6.3441,6.3438,6.3483,6.3479,6.3631,6.365,6.3513,6.3515,6.3516,0,6.32,6.3238,6.3255,6.3276,6.3287,6.3321,6.334,6.3329,6.3349,6.3371,6.3398,6.343,6.3454,6.3508,6.3508,6.3535,6.3524,6.3576,6.3528,6.3532,6.3524,6.3522,6.3525,6.3585,6.3586,6.3588,6.3589,0,6.3319,6.3316,6.3346,6.3376,6.34,6.3423,6.3442,6.3461,6.345,6.3475,6.351,6.3529,6.3566,6.3597,6.3622,6.3628,6.3607,6.3604,6.3616,6.362,6.3622,6.3621,6.3466,6.36,6.3599,6.3598,6.3598,6.3597,6.3405,6.3437,6.3454,6.3489,6.3503,6.3523,6.3552,6.3555,6.3585,6.3616,6.3607,6.3646,6.366,6.3692,6.3701,6.3731,6.3711,6.3728,6.3732,6.3736,6.3742,6.3619,6.3735,6.3735,6.3735,6.3735,6.3734,0,6.3521,6.3531,6.3563,6.3593,6.362,6.36,6.3621,6.3644,6.368,6.3696,6.3721,6.3761,6.3791,6.3794,6.3823,6.3846,6.3836,6.3853,6.3851,6.3852,6.3758,6.3745,6.386,6.386,6.386,6.386,6.386,6.386,6.3584,6.3638,6.3638,6.3698,6.3707,6.3747,6.3761,6.3778,6.3791,6.3838,6.3864,6.3866,6.3877,6.3906,6.3933,6.3933,6.3943,6.3964,6.396,6.3872,6.3859,6.3847,6.3835,6.3967,6.3967,6.4052,6.4053,6.4053]}]]